Terminal Aerodrome Forecast
Issued by NWS Omaha/Valley, NE

Home | Current Version | Previous Version | Text Only | Print | Product List | Glossary On
Versions: 1 2 3 4 5 6 7 8 9 10 11 12 13 14 15 16 17 18 19 20 21 22 23 24 25 26 27 28 29 30 31 32 33 34 35 36 37 38 39
000
FTUS43 KOAX 271053 AAC
TAFOFK
TAF AMD
KOFK 271053Z 2711/2806 06005KT P6SM OVC040
      TEMPO 2711/2714 BKN025
     FM271500 12008KT P6SM BKN050
     FM272000 16013KT P6SM FEW025 BKN090=

USA.gov is the U.S. government's official web portal to all federal, state and local government web resources and services.